Retour au catalogue

NIMBUS 2 DEB

ActifLEO
NORAD 26962·DEBRIS·🇺🇸 United States

Lancé May 15, 1966 depuis Vandenberg Space Force Base

Loading…

Prochains Passages (prochaines 24 heures)

TLE

FraisSource: Space-Track

Époque: Sep 13, 2026, 08:09 UTC

1 26962U 66040M   26256.33993361  .00002431  00000-0  35360-2 0  9998
2 26962 100.2990 171.4282 0061181 317.5298 167.8148 13.55369175239571

Suivez NIMBUS 2 DEB en temps réel avec AllMySat

Download on the App Store